TimeCST,TemperatureF,Dew PointF,Humidity,Sea Level PressureIn,VisibilityMPH,Wind Direction,Wind SpeedMPH,Gust SpeedMPH,PrecipitationIn,Events,Conditions,WindDirDegrees,DateUTC
12:15 AM,19.4,12.2,74,30.03,10.0,Calm,Calm,-,N/A,,Clear,0,2012-12-24 06:15:00
12:35 AM,19.4,12.2,74,30.02,10.0,Calm,Calm,-,N/A,,Clear,0,2012-12-24 06:35:00
12:55 AM,19.4,12.2,74,30.02,10.0,Calm,Calm,-,N/A,,Scattered Clouds,0,2012-12-24 06:55:00
1:15 AM,19.4,12.2,74,30.02,10.0,Calm,Calm,-,N/A,,Scattered Clouds,0,2012-12-24 07:15:00
1:35 AM,19.4,12.2,74,30.00,10.0,Calm,Calm,-,N/A,,Clear,0,2012-12-24 07:35:00
1:55 AM,19.4,12.2,74,30.00,10.0,NE,3.5,-,N/A,,Clear,40,2012-12-24 07:55:00
2:15 AM,19.4,12.2,74,29.99,10.0,NNE,4.6,-,N/A,,Clear,30,2012-12-24 08:15:00
2:35 AM,19.4,12.2,74,29.99,10.0,NNE,4.6,-,N/A,,Scattered Clouds,30,2012-12-24 08:35:00
2:55 AM,19.4,12.2,74,29.99,10.0,NNE,3.5,-,N/A,,Scattered Clouds,30,2012-12-24 08:55:00
3:15 AM,19.4,14.0,80,29.98,10.0,Calm,Calm,-,N/A,,Clear,0,2012-12-24 09:15:00
3:55 AM,19.4,14.0,80,29.96,10.0,NNE,3.5,-,N/A,,Mostly Cloudy,20,2012-12-24 09:55:00
4:15 AM,19.4,12.2,74,29.97,10.0,NNE,3.5,-,N/A,,Overcast,20,2012-12-24 10:15:00
4:35 AM,19.4,12.2,74,29.98,10.0,Calm,Calm,-,N/A,,Overcast,0,2012-12-24 10:35:00
4:55 AM,19.4,12.2,74,29.98,10.0,Calm,Calm,-,N/A,,Overcast,0,2012-12-24 10:55:00
5:15 AM,19.4,12.2,74,29.98,10.0,Calm,Calm,-,N/A,,Overcast,0,2012-12-24 11:15:00
5:35 AM,19.4,14.0,80,29.99,10.0,NW,3.5,-,N/A,,Scattered Clouds,310,2012-12-24 11:35:00
5:55 AM,19.4,14.0,80,29.98,10.0,Calm,Calm,-,N/A,,Mostly Cloudy,0,2012-12-24 11:55:00
6:15 AM,19.4,14.0,80,29.98,10.0,Calm,Calm,-,N/A,,Overcast,0,2012-12-24 12:15:00
6:35 AM,19.4,14.0,80,29.98,10.0,Calm,Calm,-,N/A,,Mostly Cloudy,0,2012-12-24 12:35:00
6:55 AM,19.4,14.0,80,29.99,10.0,Calm,Calm,-,N/A,,Overcast,0,2012-12-24 12:55:00
7:15 AM,19.4,14.0,80,29.99,10.0,Calm,Calm,-,N/A,,Overcast,0,2012-12-24 13:15:00
7:55 AM,19.4,14.0,80,29.99,10.0,Calm,Calm,-,N/A,,Overcast,0,2012-12-24 13:55:00
8:15 AM,19.4,14.0,80,29.98,10.0,Calm,Calm,-,N/A,,Overcast,0,2012-12-24 14:15:00
8:35 AM,19.4,14.0,80,29.98,10.0,NNE,3.5,-,N/A,,Overcast,20,2012-12-24 14:35:00
8:55 AM,21.2,14.0,74,29.98,10.0,NNE,3.5,-,N/A,,Overcast,20,2012-12-24 14:55:00
9:15 AM,21.2,14.0,74,29.98,10.0,NNE,3.5,-,N/A,,Overcast,30,2012-12-24 15:15:00
9:35 AM,21.2,14.0,74,29.98,10.0,NNE,3.5,-,N/A,,Overcast,30,2012-12-24 15:35:00
9:55 AM,21.2,15.8,80,29.99,7.0,Calm,Calm,-,N/A,Snow,Light Snow,0,2012-12-24 15:55:00
10:15 AM,21.2,15.8,80,29.99,10.0,Calm,Calm,-,N/A,,Overcast,0,2012-12-24 16:15:00
10:35 AM,23.0,17.6,80,29.99,7.0,Calm,Calm,-,N/A,Snow,Light Snow,0,2012-12-24 16:35:00
10:55 AM,21.2,17.6,86,29.98,7.0,Calm,Calm,-,N/A,Snow,Light Snow,0,2012-12-24 16:55:00
11:15 AM,21.2,17.6,86,29.98,2.5,Calm,Calm,-,N/A,,Overcast,0,2012-12-24 17:15:00
11:35 AM,23.0,17.6,80,29.97,2.5,Calm,Calm,-,N/A,Snow,Light Snow,0,2012-12-24 17:35:00
11:55 AM,23.0,19.4,86,29.97,2.5,Calm,Calm,-,N/A,Snow,Light Snow,0,2012-12-24 17:55:00
12:15 PM,23.0,19.4,86,29.96,5.0,Calm,Calm,-,N/A,Snow,Light Snow,0,2012-12-24 18:15:00
12:35 PM,24.8,19.4,80,29.96,4.0,North,3.5,-,N/A,Snow,Light Snow,360,2012-12-24 18:35:00
12:55 PM,26.6,19.4,74,29.96,3.0,North,3.5,-,N/A,Snow,Light Snow,350,2012-12-24 18:55:00
1:15 PM,26.6,19.4,74,29.96,4.0,NNW,6.9,-,N/A,Snow,Light Snow,330,2012-12-24 19:15:00
1:35 PM,26.6,19.4,74,29.96,5.0,North,6.9,-,N/A,Snow,Light Snow,350,2012-12-24 19:35:00
1:55 PM,26.6,19.4,74,29.96,10.0,NNW,3.5,-,N/A,,Overcast,340,2012-12-24 19:55:00
2:15 PM,28.4,19.4,69,29.96,10.0,NNE,3.5,-,N/A,,Scattered Clouds,30,2012-12-24 20:15:00
2:35 PM,28.4,19.4,69,29.96,10.0,Calm,Calm,-,N/A,,Mostly Cloudy,0,2012-12-24 20:35:00
2:55 PM,28.4,17.6,64,29.96,10.0,North,5.8,-,N/A,,Scattered Clouds,350,2012-12-24 20:55:00
3:15 PM,28.4,17.6,64,29.97,10.0,North,6.9,-,N/A,,Scattered Clouds,10,2012-12-24 21:15:00
3:35 PM,28.4,17.6,64,29.97,10.0,North,5.8,-,N/A,,Mostly Cloudy,10,2012-12-24 21:35:00
3:55 PM,28.4,17.6,64,29.97,10.0,North,4.6,-,N/A,,Overcast,10,2012-12-24 21:55:00
4:15 PM,26.6,19.4,74,29.98,10.0,NNE,4.6,-,N/A,,Overcast,20,2012-12-24 22:15:00
4:35 PM,26.6,19.4,74,29.99,10.0,Calm,Calm,-,N/A,,Overcast,0,2012-12-24 22:35:00
4:55 PM,26.6,19.4,74,30.01,10.0,Calm,Calm,-,N/A,,Overcast,0,2012-12-24 22:55:00
5:15 PM,26.6,19.4,74,30.01,10.0,North,5.8,-,N/A,,Overcast,10,2012-12-24 23:15:00
5:35 PM,26.6,19.4,74,30.02,10.0,NNE,8.1,-,N/A,,Overcast,20,2012-12-24 23:35:00
5:55 PM,26.6,19.4,74,30.03,10.0,North,5.8,-,N/A,,Overcast,360,2012-12-24 23:55:00
6:15 PM,26.6,17.6,69,30.03,10.0,Calm,Calm,-,N/A,,Overcast,0,2012-12-25 00:15:00
6:35 PM,26.6,17.6,69,30.04,10.0,Calm,Calm,-,N/A,,Overcast,0,2012-12-25 00:35:00
6:55 PM,24.8,19.4,80,30.05,10.0,Calm,Calm,-,N/A,,Overcast,0,2012-12-25 00:55:00
7:15 PM,24.8,19.4,80,30.06,10.0,Calm,Calm,-,N/A,,Overcast,0,2012-12-25 01:15:00
7:35 PM,24.8,19.4,80,30.06,10.0,Calm,Calm,-,N/A,,Overcast,0,2012-12-25 01:35:00
7:55 PM,26.6,19.4,74,30.07,10.0,Calm,Calm,-,N/A,,Overcast,0,2012-12-25 01:55:00
8:15 PM,26.6,17.6,69,30.08,10.0,Calm,Calm,-,N/A,,Overcast,0,2012-12-25 02:15:00
8:35 PM,26.6,17.6,69,30.08,10.0,North,4.6,-,N/A,,Overcast,360,2012-12-25 02:35:00
8:55 PM,26.6,17.6,69,30.09,10.0,North,4.6,-,N/A,,Overcast,360,2012-12-25 02:55:00
9:15 PM,26.6,17.6,69,30.09,10.0,NNW,3.5,-,N/A,,Overcast,340,2012-12-25 03:15:00
9:35 PM,26.6,17.6,69,30.10,10.0,North,6.9,-,N/A,,Overcast,10,2012-12-25 03:35:00
9:55 PM,26.6,17.6,69,30.10,10.0,NNE,6.9,-,N/A,,Overcast,20,2012-12-25 03:55:00
10:15 PM,24.8,17.6,74,30.11,10.0,NNE,6.9,-,N/A,,Overcast,20,2012-12-25 04:15:00
10:35 PM,24.8,17.6,74,30.12,10.0,NNE,5.8,-,N/A,,Overcast,20,2012-12-25 04:35:00
10:55 PM,24.8,17.6,74,30.13,10.0,NNE,6.9,-,N/A,,Overcast,30,2012-12-25 04:55:00
11:15 PM,24.8,17.6,74,30.13,10.0,NNE,5.8,-,N/A,,Overcast,30,2012-12-25 05:15:00
11:35 PM,23.0,17.6,80,30.14,10.0,NNE,6.9,-,N/A,,Overcast,20,2012-12-25 05:35:00
11:55 PM,23.0,17.6,80,30.15,10.0,NNE,5.8,-,N/A,,Overcast,20,2012-12-25 05:55:00